[keps] orb08066.2l.amsat
Ray Hoad
r.hoad at att.net
Thu Mar 6 18:01:30 PST 2008
SB KEPS @ AMSAT $ORB08066.N
2Line Orbital Elements 08066.AMSAT
HR AMSAT ORBITAL ELEMENTS FOR AMATEUR SATELLITES IN NASA FORMAT
FROM WA5QGD FORT WORTH,TX March 6, 2008
Send Subscribe/unsubscribe to KEPS at
http://www.amsat.org/mailman/listinfo/keps
BID: ORB08066.N
DECODE 2-LINE ELSETS WITH THE FOLLOWING KEY:
1 AAAAAU 00 0 0 BBBBB.BBBBBBBB .CCCCCCCC 00000-0 00000-0 0 DDDZ
2 AAAAA EEE.EEEE FFF.FFFF GGGGGGG HHH.HHHH III.IIII JJ.JJJJJJJJKKKKKZ
KEY: A-CATALOGNUM B-EPOCHTIME C-DECAY D-ELSETNUM E-INCLINATION F-RAAN
G-ECCENTRICITY H-ARGPERIGEE I-MNANOM J-MNMOTION K-ORBITNUM Z-CHECKSUM
TO ALL RADIO AMATEURS BT
AO-07
1 07530U 74089B 08066.10387737 -.00000027 00000-0 10000-3 0 1197
2 07530 101.4802 101.0044 0012105 103.3523 256.8901 12.53573493524069
AO-10
1 14129U 83058B 08063.86448780 -.00000315 00000-0 10000-3 0 04789
2 14129 025.9236 227.3594 6022951 103.8050 326.4123 02.05872086185935
UO-11
1 14781U 84021B 08066.26029560 .00000306 00000-0 48121-4 0 6127
2 14781 098.1669 098.6946 0009882 049.4997 310.7115 14.79623064288630
RS-15
1 23439U 94085A 08065.86524720 -.00000039 00000-0 10000-3 0 1001
2 23439 064.8197 302.1327 0150106 142.3771 218.7766 11.27551551543310
FO-29
1 24278U 96046B 08066.55039286 -.00000078 00000-0 -45918-4 0 7183
2 24278 098.5854 356.2711 0351358 121.1813 242.4273 13.52935252570510
SO-33
1 25509U 98061B 08066.71820416 .00000050 00000-0 -44717-5 0 1473
2 25509 031.4318 175.7400 0355457 211.3495 146.5479 14.28201332488957
AO-40
1 26609U 00072B 08066.09989457 -.00000347 00000-0 10000-3 0 195
2 26609 007.4716 094.2411 7923203 058.5157 355.3991 01.25584609 33740
VO-52
1 28650U 05017B 08066.40387720 -.00000183 00000-0 -16574-4 0 8737
2 28650 097.8000 135.7914 0028283 115.1874 245.2287 14.81427320153389
PO-63
1 29712U 07001D 08066.73743296 .00000687 00000-0 97523-4 0 2455
2 29712 097.8872 126.8050 0014193 359.1920 000.9268 14.80048368 62312
AO-16
1 20439U 90005D 08065.99350876 .00000017 00000-0 21490-4 0 2674
2 20439 098.2210 051.3777 0011626 120.3242 239.9100 14.31786050946156
LO-19
1 20442U 90005G 08066.40731705 -.00000032 00000-0 30366-5 0 1927
2 20442 098.1946 060.6007 0012773 118.6259 241.6221 14.32024940946367
AO-27
1 22825U 93061C 08066.42958868 .00000032 00000-0 29072-4 0 9144
2 22825 098.3711 030.3699 0007858 199.5987 160.4912 14.29232191753097
IO-26
1 22826U 93061D 08066.43147219 .00000014 00000-0 21711-4 0 6178
2 22826 098.3645 031.3296 0008477 196.2730 163.8189 14.29480051753189
PO-28
1 22829U 93061G 08066.39838721 .00000002 00000-0 17036-4 0 8906
2 22829 098.3521 032.4191 0009895 168.3554 191.7859 14.30182211753431
GO-32
1 25397U 98043D 08066.74331405 -.00000110 00000-0 -30442-4 0 5433
2 25397 098.3783 106.9043 0001480 142.3846 217.7450 14.23138822501646
MO-46
1 26548U 00057D 08066.41450784 -.00000017 00000-0 15893-4 0 417
2 26548 064.5569 088.2796 0018065 338.0321 021.9979 14.83232522402579
NO-44
1 26931U 01043C 08066.50799710 -.00000158 00000-0 -29268-4 0 8229
2 26931 067.0518 189.1674 0004994 273.2021 086.8505 14.29513128335738
SO-50
1 27607U 02058C 08066.30611703 .00000007 00000-0 23189-4 0 5460
2 27607 064.5605 006.0788 0081320 299.7934 059.5096 14.71332970279836
CO-55
1 27844U 03031E 08066.67393131 .00000058 00000-0 47465-4 0 2519
2 27844 098.7192 076.3545 0010711 054.0648 306.1516 14.20564006242884
CO-57
1 27848U 03031J 08066.02430989 .00000043 00000-0 40381-4 0 2047
2 27848 098.7198 074.8310 0010562 059.9681 300.2537 14.20375496242760
AO-51
1 28375U 04025K 08066.67092430 .00000008 00000-0 14948-4 0 468
2 28375 098.0827 096.9568 0084764 103.2688 257.7976 14.40598740193649
CO-56
1 28941U 06005C 08066.77323450 .00025807 25180-5 21424-3 0 8792
2 28941 098.1047 163.9740 0185417 052.3109 309.4774 15.51448504114132
CP4
1 31122U 07012F 08065.74102613 .00000549 00000-0 13192-3 0 2789
2 31122 098.0523 135.1262 0084513 290.3553 068.8532 14.55094070 47037
CP3
1 31128U 07012M 08066.65279631 -.00000049 00000-0 00000 0 0 2743
2 31128 098.0480 134.3767 0101996 292.1590 066.8833 14.51919537 47056
LIBERT
1 31129U 07012N 08066.77099536 .00000336 00000-0 89029-4 0 8007
2 31129 098.0512 134.5243 0101680 291.8557 067.1844 14.52008871 47050
NOAA-10
1 16969U 86073A 08066.45918813 -.00000012 00000-0 13438-4 0 330
2 16969 098.7316 088.5939 0013007 118.7651 241.4846 14.27352146116786
NOAA-11
1 19531U 88089A 08066.27377380 -.00000140 00000-0 -49841-4 0 694
2 19531 098.7972 157.0399 0011631 006.0268 354.1028 14.14866953 3352
NOAA-12
1 21263U 91032A 08066.44507506 .00000118 00000-0 68581-4 0 5763
2 21263 098.7664 068.4094 0013345 065.9466 294.3117 14.25520180873754
MET-3/5
1 21655U 91056A 08066.25466547 .00000051 00000-0 10000-3 0 4006
2 21655 082.5587 177.0887 0012213 271.6491 088.3236 13.17014530796033
MET-2/21
1 22782U 93055A 08066.45042598 .00000013 00000-0 -13475-5 0 812
2 22782 082.5490 193.0581 0021753 214.9516 145.0223 13.83626538732929
OKEAN-4
1 23317U 94066A 08065.99877523 .00000220 00000-0 24219-4 0 5240
2 23317 082.5364 051.3446 0023975 105.7711 254.6186 14.82584019722990
NOAA-14
1 23455U 94089A 08066.50136265 -.00000261 00000-0 -11450-3 0 500
2 23455 098.9561 138.6526 0010339 077.2334 282.9993 14.13734931679844
SICH-1
1 23657U 95046A 08065.95054299 .00000223 00000-0 25205-4 0 3224
2 23657 082.5286 192.3484 0025664 098.6773 261.7337 14.81557168674934
NOAA-15
1 25338U 98030A 08066.39991599 -.00000044 00000-0 -69481-6 0 3779
2 25338 098.5506 060.8959 0010369 347.3702 012.7230 14.24688697510161
RESURS
1 25394U 98043A 08066.53365183 -.00000015 00000-0 11394-4 0 8720
2 25394 098.4031 115.1061 0001944 112.3827 247.7561 14.24153980501833
FENGYUN1
1 25730U 99025A 08065.92455652 .00000543 00000-0 34501-3 0 3553
2 25730 098.7179 045.2236 0022064 100.9099 259.4557 14.07706645454431
OKEAN-0
1 25860U 99039A 08066.03500538 .00000069 00000-0 17909-4 0 3062
2 25860 097.7451 061.1766 0000543 078.0889 282.0383 14.73506038464204
NOAA-16
1 26536U 00055A 08066.35234872 .00000089 00000-0 73430-4 0 8375
2 26536 099.1505 053.3087 0010896 150.5279 209.6506 14.12472383384257
NOAA-17
1 27453U 02032A 08066.46369232 -.00000063 00000-0 -90975-5 0 8347
2 27453 098.5457 134.0204 0012460 051.3980 308.8309 14.23953621296187
NOAA-18
1 28654U 05018A 08066.45576498 .00000364 00000-0 22610-3 0 3426
2 28654 098.8591 008.6982 0013522 243.2556 116.7212 14.11144136143981
HUBBLE
1 20580U 90037B 08066.90373099 .00000405 00000-0 18523-4 0 874
2 20580 028.4687 270.3312 0003352 018.6375 341.4336 15.00345764779601
UARS
1 21701U 91063B 08066.57891645 .00003334 00000-0 56857-4 0 3076
2 21701 056.9756 248.8242 0084228 346.1940 013.6813 15.50781442906578
PO-34
1 25520U 98064B 08065.59217660 .00000476 00000-0 13660-4 0 9454
2 25520 028.4592 152.3157 0005907 231.4714 128.5353 15.17143586517419
ISS
1 25544U 98067A 08066.86732796 .00019441 00000-0 12626-3 0 594
2 25544 051.6381 183.8128 0001881 208.1489 246.9070 15.75998980532387
OO-38
1 26063U 00004C 08066.08965000 -.00000027 00000-0 10850-4 0 1528
2 26063 100.2038 122.0386 0037162 139.6221 220.7736 14.35828752424774
UWE-1
1 28892U 05043C 08066.25629701 .00000047 00000-0 19438-4 0 9926
2 28892 098.1085 322.2954 0017928 014.3359 345.8334 14.59599140125589
CO-58
1 28895U 05043F 08066.36420256 .00000279 00000-0 68080-4 0 9648
2 28895 098.1112 322.7169 0018344 014.1332 346.0367 14.59642327125482
NCUBE2
1 28897U 05043H 08066.61483709 .00000141 00000-0 39054-4 0 4956
2 28897 098.1073 322.8967 0017974 013.9890 346.1809 14.59810211117809
FCAL
1 29667U 06055J 08066.64199730 .00057174 12942-4 90085-4 0 8086
2 29667 051.6316 140.0547 0008126 320.7714 039.2735 16.04104508 70034
FALCON
1 30776U 07006E 08066.21019218 .00000614 00000-0 47897-4 0 2623
2 30776 035.4328 057.9878 0000868 232.7718 127.2919 15.02900780 54648
MAST
1 31126U 07012K 08066.18142731 .00000007 00000-0 12520-4 0 2714
2 31126 098.0491 134.6834 0093789 291.5023 067.6210 14.53403202 47055
CAPE1
1 31130U 07012P 08066.16633989 -.00000047 00000-0 36735-6 0 2516
2 31130 098.0513 133.9155 0101641 293.5156 065.5399 14.51935940 46779
/EX
More information about the Keps
mailing list